Wind_Speed
28 28 29 30 31 32 35 38 40 43 45 46 48 50 49 50 49 50 51 47 44 42 43 48 58 66 70 69 69 67 70 70 63 56 49 47 46 49 50 49 54 52 46 42 36
26 27 29 29 31 34 36 39 43 45 47 49 51 52 50 50 49 49 44 41 40 38 38 38 43 53 68 68 68 72 73 71 65 59 55 50 51 49 54 52 52 53 48 45 41
26 28 29 31 34 36 40 43 47 48 49 49 50 50 50 50 49 43 37 39 42 41 43 44 43 41 50 65 67 69 74 72 67 63 60 56 54 54 53 56 52 51 53 49 44
27 28 32 33 36 39 43 47 50 50 51 50 49 49 49 52 47 42 35 37 42 45 47 46 47 47 45 51 64 66 70 74 69 65 64 61 57 58 55 54 55 53 53 51 45
29 31 34 35 39 42 46 49 52 53 51 50 49 50 50 50 43 37 37 39 39 40 42 45 47 50 50 48 55 64 67 70 68 65 66 64 60 58 56 54 57 56 54 53 47
30 34 36 38 40 45 49 52 55 54 51 50 51 51 51 46 40 37 37 37 36 35 39 41 42 46 50 53 52 60 66 69 68 66 68 66 64 60 54 55 57 60 56 54 52
34 36 38 40 42 47 51 54 55 52 51 52 53 53 49 42 39 37 40 41 38 40 42 45 49 50 54 55 55 58 68 69 66 66 67 68 68 57 54 57 59 61 58 55 54
36 38 39 42 45 50 53 55 54 53 54 55 55 52 46 40 38 37 37 37 42 45 46 49 53 53 52 52 55 62 70 71 65 65 65 69 62 60 56 57 59 60 61 57 54
37 38 41 44 49 53 55 53 54 56 56 56 55 47 43 38 36 37 38 42 42 43 46 50 49 51 50 49 54 65 69 67 62 61 64 65 65 64 57 58 57 59 59 59 55
38 40 42 45 50 55 56 55 56 58 57 56 54 45 40 37 36 39 43 40 40 43 41 39 33 35 43 47 51 56 65 63 60 59 62 64 66 63 59 59 57 59 56 56 55
39 41 43 47 53 56 56 57 58 58 61 57 46 43 40 37 36 40 38 38 39 37 34 20 17 23 26 36 41 45 56 59 56 57 58 62 67 63 57 59 57 59 57 53 54
41 41 46 50 55 56 57 58 59 60 58 53 45 42 37 34 35 38 36 36 34 23 20 5 14 13 19 30 35 35 42 52 50 54 56 63 65 59 56 58 55 57 55 52 49
43 44 47 52 54 56 57 58 60 61 57 47 45 40 35 31 34 35 33 31 28 18 11 6 14 6 11 23 31 33 32 44 47 49 54 60 62 59 55 56 55 55 55 51 47
44 46 49 53 55 57 56 61 62 61 56 50 44 39 33 29 31 33 28 24 21 16 4 8 9 11 11 17 29 27 30 36 41 46 48 56 57 57 54 54 54 53 52 51 47
43 46 51 54 57 57 60 63 62 60 53 49 44 38 30 27 29 30 25 19 13 12 9 6 5 7 9 17 23 28 32 30 36 40 44 50 53 55 55 54 51 49 49 50 48
43 48 51 54 56 58 61 63 63 58 51 43 42 36 26 24 23 24 23 19 15 9 10 5 1 5 17 16 22 26 23 28 31 36 39 44 51 50 54 49 48 48 46 47 48
45 49 54 54 56 58 62 65 63 58 52 44 37 34 26 21 24 16 19 19 19 11 10 12 14 18 16 16 18 28 21 24 28 33 37 40 45 48 49 47 46 43 45 47 47
47 51 53 53 56 60 64 65 66 61 52 44 38 32 24 17 15 12 17 14 17 15 7 9 7 9 14 16 8 21 23 23 26 29 34 37 41 45 46 48 47 43 44 47 46
48 51 53 54 58 62 65 67 68 62 52 43 35 29 21 10 14 14 11 10 11 14 10 6 3 1 14 14 14 20 24 24 25 27 31 35 39 40 41 42 44 44 44 45 46
48 50 52 55 59 64 68 69 67 61 50 40 36 29 21 11 8 5 8 10 6 11 11 8 5 4 11 15 17 19 24 25 26 28 30 33 36 35 37 40 40 41 40 42 42
46 50 54 58 61 65 68 70 67 58 49 38 35 31 25 12 6 5 7 2 5 7 9 9 5 6 9 13 16 21 23 24 25 27 28 30 32 34 34 36 39 39 37 38 37
46 50 54 58 62 66 68 72 69 59 48 39 34 31 24 14 11 8 7 11 4 4 3 6 5 7 8 13 19 20 23 25 26 24 26 27 30 33 33 36 39 38 36 37 35
46 49 53 57 62 67 70 69 67 59 48 39 33 29 23 16 10 11 15 3 3 2 2 5 8 7 9 10 17 21 23 25 26 25 26 25 28 31 35 37 39 39 38 36 32
47 52 55 59 66 68 71 70 62 55 49 38 33 28 21 17 11 10 10 6 4 2 0 3 4 4 11 10 11 18 23 25 26 26 26 26 26 30 33 37 39 38 37 37 35
49 52 57 60 65 68 71 69 64 57 45 37 31 27 21 14 12 8 10 8 7 6 4 3 2 3 4 12 14 14 15 17 21 25 25 25 25 30 32 34 37 37 38 37 36
48 53 57 59 63 67 68 67 61 50 46 35 28 27 26 19 4 7 14 13 16 10 4 4 2 11 3 9 13 14 14 14 20 25 24 23 23 26 32 34 35 36 37 38 39
46 48 53 59 62 65 64 65 61 52 41 35 31 29 28 17 4 6 11 15 8 11 8 6 1 6 4 3 3 15 15 15 15 11 14 19 24 27 29 33 38 39 38 37 38
Wind_Direction
330 330 330 331 331 327 325 325 324 324 323 318 318 316 312 307 303 299 293 285 273 264 262 255 249 241 238 238 236 233 231 232 229 227 223 219 218 217 216 220 219 223 221 220 218
333 332 332 332 329 328 328 327 327 328 325 322 321 319 314 310 307 303 294 274 268 269 260 259 253 246 240 240 237 234 231 232 228 225 222 218 218 218 215 218 220 221 222 222 222
334 333 334 333 332 332 331 333 332 329 326 324 323 320 318 312 308 305 286 267 267 269 270 264 258 255 246 239 238 233 231 231 227 223 220 218 218 218 216 215 221 218 221 221 219
333 333 334 333 334 335 336 335 333 330 328 326 323 321 317 315 311 304 285 275 270 269 268 263 257 257 251 243 237 236 230 230 227 221 220 217 217 218 216 214 216 220 218 222 220
333 332 334 334 334 336 337 336 334 332 329 327 325 320 320 317 313 298 292 287 277 274 272 267 261 255 249 244 238 233 232 230 226 221 219 215 216 218 216 215 215 218 216 222 221
337 334 335 335 335 337 338 337 336 334 332 328 325 321 322 316 309 300 298 295 289 284 281 272 264 255 249 245 241 234 230 227 226 221 216 214 214 215 214 215 215 217 215 218 221
340 338 337 337 338 339 339 338 337 336 333 331 328 324 322 316 310 304 303 301 289 286 279 271 269 263 257 252 244 236 229 226 222 220 215 212 213 211 215 217 215 217 217 214 219
341 340 339 339 339 341 340 340 339 338 335 333 329 328 322 318 313 307 308 303 295 289 281 273 269 265 258 250 239 228 226 223 218 219 214 212 205 212 213 215 215 217 219 215 217
340 340 338 340 341 342 341 341 342 340 337 335 332 328 325 320 318 313 314 308 302 295 288 279 266 254 243 237 231 221 221 219 216 217 213 211 207 211 212 213 214 218 217 217 217
337 338 337 339 339 341 342 342 343 340 339 337 334 329 328 325 323 318 318 315 311 305 296 290 265 239 232 227 226 221 219 214 210 212 213 208 206 211 209 212 210 218 218 218 216
340 338 339 340 341 341 343 344 343 343 342 339 334 332 333 329 325 323 323 325 319 311 305 282 223 216 221 222 222 221 214 209 205 208 208 206 208 207 209 211 207 213 219 217 218
341 341 341 342 342 342 344 344 345 344 343 338 339 337 336 334 329 330 335 333 328 318 321 213 183 191 229 219 212 204 210 206 200 204 202 207 208 208 207 209 208 211 216 218 220
341 340 342 343 343 343 344 345 345 345 345 341 342 338 337 337 334 339 346 342 345 337 339 190 203 166 220 204 205 196 198 199 197 201 200 204 209 207 205 208 209 211 212 216 217
341 340 342 342 342 344 346 345 346 347 344 344 342 341 340 341 343 346 354 354 8 11 17 347 241 204 216 194 190 158 204 194 193 199 199 203 206 205 206 210 209 214 216 216 218
343 342 343 344 344 347 347 346 348 347 346 344 343 341 342 343 346 355 358 7 15 13 2 89 119 150 156 176 183 185 197 189 191 195 196 202 203 204 206 208 211 213 217 219 219
345 344 344 344 346 347 347 348 348 347 348 346 342 342 344 341 345 357 9 22 21 0 352 300 218 152 145 157 158 157 201 187 187 189 193 199 203 202 207 209 214 214 215 219 222
344 344 344 345 347 347 348 347 347 350 347 346 344 340 343 339 333 355 9 32 41 40 24 19 67 112 146 156 169 173 171 174 181 185 188 195 204 198 203 205 211 213 214 218 221
343 345 345 346 347 349 348 347 348 349 348 345 343 340 343 346 340 6 4 22 43 49 45 8 51 135 141 176 175 189 180 174 178 182 186 191 200 200 199 204 206 209 211 216 222
344 346 348 347 347 350 349 348 348 347 347 345 342 339 343 328 323 333 357 25 40 47 47 53 19 20 184 173 180 175 178 176 175 180 184 190 197 200 198 202 209 210 211 216 219
345 347 349 350 351 350 350 347 347 347 347 344 338 338 344 323 322 325 3 12 353 43 37 61 61 122 150 169 162 166 176 174 176 178 181 187 194 200 197 199 207 208 209 213 218
345 349 350 351 351 351 349 348 348 347 347 342 336 336 344 333 299 292 308 334 38 15 35 41 74 123 150 156 157 167 174 177 176 177 181 186 190 197 198 196 202 208 208 210 212
344 348 350 351 351 350 350 348 348 349 348 340 338 337 346 331 282 267 236 258 153 69 29 23 77 111 142 164 148 172 181 180 177 177 181 186 191 194 198 196 197 203 207 212 211
345 348 350 351 350 351 349 348 348 351 351 344 341 342 347 328 307 262 245 318 127 92 298 80 68 125 144 161 171 172 182 185 183 178 181 187 190 191 197 200 200 202 204 208 213
347 347 350 351 352 351 349 350 351 353 352 351 347 345 352 331 318 258 239 192 143 201 135 88 39 81 156 151 167 186 185 188 187 186 184 187 190 190 194 201 203 204 207 211 218
346 347 351 351 351 349 349 349 352 356 354 356 355 357 360 349 302 248 208 190 195 205 201 206 275 9 131 168 169 171 184 202 206 200 194 192 195 192 196 199 203 207 212 215 219
345 346 350 351 351 349 349 350 353 0 358 0 358 349 347 354 293 249 207 205 198 217 198 185 315 119 115 165 174 175 184 200 201 199 196 199 197 200 200 201 203 205 209 214 219
341 344 346 350 350 348 348 350 351 359 360 359 360 356 356 351 272 275 216 200 199 204 197 205 23 46 157 226 203 194 197 197 198 205 209 209 204 204 203 201 205 208 211 213 219
Height
5841 5837 5834 5831 5827 5822 5818 5813 5807 5801 5795 5789 5783 5777 5771 5763 5758 5752 5745 5740 5737 5737 5737 5737 5740 5744 5749 5755 5761 5768 5772 5778 5793 5806 5817 5823 5828 5832 5838 5841 5846 5852 5860 5866 5871
5837 5834 5830 5826 5822 5817 5812 5806 5799 5792 5785 5778 5771 5763 5757 5750 5743 5736 5730 5726 5724 5723 5725 5724 5724 5727 5731 5737 5742 5750 5759 5768 5782 5793 5803 5812 5818 5822 5828 5834 5839 5846 5853 5859 5864
5834 5830 5826 5822 5817 5811 5805 5799 5791 5784 5776 5768 5760 5752 5744 5736 5729 5722 5717 5715 5713 5711 5711 5711 5712 5714 5715 5721 5727 5735 5746 5754 5766 5779 5789 5800 5806 5811 5818 5825 5833 5842 5846 5852 5858
5830 5826 5821 5817 5811 5805 5798 5791 5783 5774 5766 5757 5749 5741 5732 5723 5717 5709 5705 5702 5701 5699 5699 5698 5699 5700 5703 5706 5710 5719 5732 5737 5750 5765 5774 5786 5795 5801 5809 5818 5825 5831 5840 5845 5852
5826 5821 5816 5811 5805 5798 5791 5782 5773 5765 5756 5748 5738 5728 5720 5711 5705 5698 5693 5690 5688 5686 5685 5684 5684 5685 5688 5692 5696 5704 5715 5722 5736 5750 5759 5772 5783 5791 5803 5809 5815 5821 5832 5838 5846
5822 5816 5811 5805 5799 5791 5782 5774 5765 5756 5747 5738 5727 5717 5709 5700 5693 5686 5681 5678 5675 5673 5671 5669 5669 5670 5674 5678 5682 5692 5698 5707 5719 5733 5746 5760 5770 5779 5796 5799 5805 5811 5823 5832 5838
5817 5811 5806 5799 5793 5784 5775 5765 5756 5747 5737 5727 5716 5706 5697 5690 5681 5676 5670 5665 5662 5659 5656 5654 5652 5654 5656 5659 5669 5677 5683 5690 5706 5721 5734 5746 5756 5777 5787 5790 5795 5803 5812 5825 5831
5812 5806 5800 5794 5786 5777 5768 5758 5748 5739 5728 5717 5706 5696 5687 5679 5672 5666 5661 5654 5649 5644 5639 5637 5635 5634 5637 5642 5649 5658 5664 5675 5697 5708 5724 5735 5759 5765 5772 5779 5788 5794 5804 5816 5825
5808 5801 5794 5787 5779 5771 5761 5752 5741 5730 5720 5708 5696 5686 5677 5670 5663 5656 5651 5642 5634 5628 5621 5616 5614 5614 5619 5627 5633 5638 5651 5666 5686 5701 5712 5728 5746 5751 5760 5769 5779 5785 5796 5807 5818
5803 5796 5788 5781 5772 5763 5753 5744 5734 5722 5710 5698 5687 5677 5669 5662 5655 5647 5639 5630 5621 5612 5602 5595 5591 5595 5602 5611 5620 5633 5643 5656 5675 5690 5704 5717 5730 5741 5750 5759 5771 5778 5788 5799 5811
5798 5791 5783 5775 5766 5756 5747 5737 5729 5719 5702 5691 5680 5669 5660 5654 5646 5638 5629 5620 5609 5597 5589 5580 5581 5587 5598 5603 5611 5623 5633 5648 5665 5679 5692 5710 5716 5730 5741 5750 5761 5768 5779 5792 5802
5793 5786 5778 5769 5759 5750 5740 5729 5718 5709 5698 5683 5672 5662 5654 5648 5639 5631 5622 5612 5600 5590 5583 5581 5582 5588 5593 5598 5606 5618 5629 5643 5656 5667 5683 5692 5705 5719 5732 5742 5754 5763 5774 5786 5795
5788 5781 5774 5764 5755 5744 5734 5723 5712 5699 5689 5676 5666 5657 5650 5643 5635 5625 5617 5607 5596 5589 5584 5583 5584 5586 5590 5596 5605 5616 5627 5638 5650 5661 5672 5683 5693 5710 5725 5737 5747 5756 5769 5779 5791
5784 5776 5768 5760 5751 5739 5728 5717 5705 5692 5682 5672 5662 5653 5645 5638 5631 5622 5615 5606 5598 5593 5590 5589 5589 5590 5593 5599 5606 5620 5627 5635 5646 5657 5671 5680 5694 5705 5720 5732 5742 5752 5764 5775 5786
5779 5772 5763 5753 5744 5733 5723 5710 5699 5687 5676 5665 5655 5647 5639 5635 5629 5622 5615 5606 5601 5597 5596 5593 5592 5592 5596 5602 5610 5619 5629 5635 5642 5651 5664 5676 5691 5701 5712 5725 5738 5751 5761 5770 5780
5775 5768 5759 5750 5740 5729 5718 5705 5693 5683 5672 5663 5650 5643 5636 5631 5627 5622 5617 5609 5603 5599 5598 5594 5595 5596 5600 5605 5612 5622 5628 5635 5643 5653 5663 5675 5686 5698 5712 5732 5738 5745 5755 5765 5773
5771 5763 5754 5745 5735 5725 5712 5700 5689 5678 5667 5660 5651 5641 5635 5630 5626 5622 5617 5612 5607 5604 5601 5600 5599 5599 5604 5609 5614 5620 5628 5637 5645 5653 5664 5673 5684 5698 5709 5720 5731 5741 5750 5758 5767
5768 5760 5750 5740 5730 5720 5708 5696 5684 5673 5662 5653 5644 5637 5632 5628 5625 5621 5619 5614 5610 5608 5606 5603 5605 5608 5609 5613 5618 5624 5632 5639 5646 5655 5664 5673 5682 5693 5704 5714 5723 5731 5742 5751 5760
5764 5756 5746 5737 5726 5715 5704 5691 5678 5667 5658 5650 5643 5634 5629 5626 5624 5622 5619 5615 5612 5609 5610 5608 5608 5608 5611 5614 5621 5625 5633 5640 5647 5656 5664 5673 5682 5689 5700 5709 5717 5726 5735 5743 5752
5761 5752 5744 5733 5722 5710 5698 5686 5673 5661 5651 5643 5636 5631 5626 5623 5622 5620 5619 5617 5612 5612 5611 5610 5610 5611 5614 5617 5621 5627 5635 5642 5647 5655 5663 5672 5680 5686 5696 5705 5713 5722 5731 5739 5746
5757 5748 5739 5728 5718 5706 5695 5682 5670 5656 5647 5638 5632 5627 5624 5621 5619 5619 5619 5616 5614 5614 5614 5612 5613 5615 5616 5620 5623 5630 5636 5643 5649 5656 5662 5670 5678 5686 5694 5703 5710 5717 5724 5733 5743
5754 5746 5736 5726 5716 5703 5691 5677 5665 5653 5644 5634 5629 5623 5621 5619 5618 5617 5616 5614 5614 5615 5615 5615 5614 5615 5618 5621 5624 5631 5638 5643 5649 5657 5663 5670 5678 5684 5691 5699 5706 5714 5721 5727 5737
5751 5744 5734 5725 5713 5700 5686 5673 5661 5650 5641 5632 5626 5621 5618 5615 5614 5613 5615 5614 5614 5615 5616 5615 5616 5617 5619 5623 5626 5630 5637 5643 5649 5655 5661 5668 5675 5681 5689 5695 5703 5711 5718 5725 5732
5748 5738 5730 5719 5706 5695 5684 5672 5658 5646 5637 5630 5623 5618 5616 5612 5611 5611 5613 5616 5616 5616 5618 5618 5617 5618 5620 5623 5628 5632 5636 5641 5647 5653 5659 5665 5672 5679 5686 5692 5699 5707 5714 5722 5729
5743 5734 5725 5714 5705 5692 5681 5669 5658 5647 5637 5629 5622 5616 5614 5612 5609 5609 5611 5613 5616 5617 5618 5618 5618 5619 5620 5623 5627 5631 5637 5642 5646 5651 5658 5664 5670 5677 5683 5688 5696 5703 5709 5717 5724
5740 5731 5722 5713 5702 5691 5680 5667 5657 5648 5638 5631 5624 5618 5613 5609 5607 5607 5610 5612 5613 5617 5618 5619 5619 5619 5620 5623 5627 5632 5636 5641 5645 5650 5657 5663 5669 5673 5679 5685 5692 5699 5705 5712 5719
5737 5730 5721 5712 5701 5689 5678 5665 5654 5647 5639 5631 5626 5619 5613 5608 5605 5606 5609 5611 5613 5617 5616 5620 5621 5622 5623 5624 5627 5632 5635 5639 5644 5650 5656 5662 5667 5672 5677 5683 5689 5695 5702 5709 5715